Location: Asheville, NC
(35.6000°N, 82.5500°W)
Time: 07:12:04
(UTC-04:00)

CUTE-I - Pass Details

Date: 11 January 2018
Orbit: 811 x 825 km, 98.7° (Epoch: 23 June)

Event Time Altitude Azimuth Distance (km) Brightness Sun altitude
Rises 07:06:27 0° 10° (N) 3,336 ? -7.1°
Reaches altitude 10° 07:08:48 10° 8° (N) 2,401 ? -6.6°
Maximum altitude 07:14:04 69° 286° (WNW) 868 ? -5.6°
Drops below altitude 10° 07:19:19 10° 204° (SSW) 2,391 ? -4.6°
Sets 07:21:40 0° 201° (SSW) 3,321 ? -4.2°
